www.pogodaiklimat.ru

Погода и климат >> Архив погоды >> ОАЭ >> Dubai


АРХИВ ПОГОДЫ в Dubai

Время (UTC), дата Ветер
(напр.,м/с)
 
Видим.   Явления Облачность Т
(С)
Тd
(С)
f
(%)
Тe
(С)
Тes
(С)
Комфортность P
(гПа)
Po
(гПа)
Тmin
(С)
Tmax
(С)
R
(мм)
R24
(мм)
S
(см)
09 18.06 З 4 10 км ясно +40.1 +25.5 44 +54 +68 опасность
перегрева
997.5 997.0
12 18.06 З 4 10 км ясно +40.5 +23.8 39 +51 +58 опасность
перегрева
996.8 996.3
15 18.06 З 3 10 км ясно +36.3 +24.2 50 +48 +48 опасность
перегрева
997.2 996.7
18 18.06 Ю 2 10 км ясно +34.5 +26.1 62 +51 +51 опасность
перегрева
998.4 997.9 +42.1
21 18.06 ЮЗ 3 8000 м мгла ясно +32.6 +27.7 75 +52 +52 опасность
перегрева
997.8 997.3
00 19.06 Ю 3 5000 м мгла 5/5 90 м
[St]
+30.0 +27.1 84 +47 +47 опасность
перегрева
997.4 996.9
03 19.06 Ю 2 4000 м мгла 9/9 90 м
[St]
+29.2 +27.2 89 +46 +47 опасность
перегрева
998.7 998.2
06 19.06 ЮЗ 3 10 км ясно +34.8 +26.6 63 +52 +67 опасность
перегрева
999.2 998.7 +28.4
12 19.06 З 6 10 км ясно +38.1 +22.9 42 +48 +52 опасность
перегрева
996.4 995.8
18 19.06 З 3 10 км ясно +33.7 +26.1 65 +50 +50 опасность
перегрева
997.8 997.3 +38.7
21 19.06 Ю 4 10 км ясно +31.9 +24.9 67 +45 +45 опасность
перегрева
996.5 996.0
03 20.06 Ю 4 10 км ясно +30.7 +22.5 62 +40 +42 очень
душно
996.8 996.3
06 20.06 Ю 4 10 км ясно +35.9 +22.8 47 +46 +56 опасность
перегрева
997.5 996.9 +30.1
09 20.06 ЮЗ 3 10 км ясно +41.8 +18.3 26 +45 +63 опасность
перегрева
996.1 995.5
18 20.06 З 3 10 км ясно +33.6 +26.0 65 +50 +50 опасность
перегрева
996.6 996.1 +42.4
21 20.06 Ю 3 8000 м мгла ясно +32.7 +26.9 72 +51 +51 опасность
перегрева
995.6 995.1
00 21.06 Ю 3 7000 м мгла ясно +31.5 +27.1 78 +50 +50 опасность
перегрева
995.5 995.0
06 21.06 В 2 6000 м пыль ясно +35.8 +26.2 58 +52 +68 опасность
перегрева
997.5 997.0 +30.1
09 21.06 С 6 6000 м пыль ясно +36.9 +27.8 60 +57 +66 опасность
перегрева
996.4 995.9
12 21.06 СЗ 7 7000 м пыль ясно +36.3 +25.8 55 +51 +54 опасность
перегрева
995.2 994.7
18 21.06 СЗ 3 10 км ясно +35.1 +26.7 62 +52 +52 опасность
перегрева
997.8 997.3 +40.5
00 22.06 С 2 8000 м мгла ясно +33.9 +27.8 71 +54 +54 опасность
перегрева
997.2 996.7
06 22.06 З 3 7000 м пыль 3/3 700 м
[Sc]
+36.7 +28.7 64 +59 +69 опасность
перегрева
999.5 999.0 +33.2
09 22.06 СЗ 6 8000 м пыль ясно +38.0 +27.7 56 +57 +67 опасность
перегрева
998.8 998.2
15 22.06 СЗ 4 10 км 3/0
[Ci fib]
+35.6 +24.5 53 +48 +48 опасность
перегрева
998.0 997.5
18 22.06 СЗ 3 10 км ясно +34.9 +26.2 61 +51 +51 опасность
перегрева
999.1 998.6 +38.8
00 23.06 В 2 10 км ясно +34.8 +23.4 52 +46 +46 опасность
перегрева
998.9 998.4
03 23.06 ЮВ 2 8000 м пыль ясно +34.7 +24.0 54 +46 +49 опасность
перегрева
1000.0 999.5
06 23.06 Ю 2 10 км ясно +40.4 +20.0 31 +46 +63 опасность
перегрева
1000.7 1000.2 +34.1
12 23.06 СЗ 7 10 км ясно +39.2 +24.7 44 +51 +54 опасность
перегрева
998.2 997.7
18 23.06 СЗ 3 10 км ясно +36.0 +21.0 42 +43 +43 опасность
перегрева
1000.3 999.7 +43.0
03 24.06 Ю 3 8000 м пыль 3/0
[Ci fib]
+34.4 +22.1 49 +43 +45 опасность
перегрева
999.8 999.3
06 24.06 Ю 3 8000 м пыль ясно +38.9 +18.6 31 +43 +56 опасность
перегрева
1000.6 1000.0 +33.9
15 24.06 СЗ 5 10 км 4/0
[Ci fib]
+36.8 +23.2 46 +47 +47 опасность
перегрева
998.0 997.5
18 24.06 СЗ 4 10 км ясно +35.7 +21.5 44 +44 +44 опасность
перегрева
999.1 998.6 +41.6
21 24.06 ЮЗ 2 10 км ясно +35.1 +21.3 45 +43 +43 опасность
перегрева
998.4 997.9
00 25.06 ЮЗ 3 10 км ясно +33.3 +22.7 54 +43 +43 опасность
перегрева
997.7 997.2
03 25.06 ЮВ 3 10 км ясно +32.0 +24.5 65 +45 +47 опасность
перегрева
998.8 998.3
06 25.06 З 3 10 км ясно +37.0 +21.9 42 +45 +60 опасность
перегрева
999.8 999.2 +31.6

 

Местоположение метеостанции Dubai (ОАЭ): широта 25.25 долгота 55.33 высота над уровнем моря 5 м.

В архиве по умолчанию представлена погода в Dubai за последнюю неделю. Архивные данные за месяц целиком и за предыдущие месяцы, начиная с января 2011 года, Вы можете получить, выбрав интересующий диапазон дат из раскрывающегося списка и нажав кнопку "Ввод!".

Внимание! Время в таблицах - всемирное. Для получения местного времени необходимо прибавить поправку, которая в Dubai равна 4 ч.

Смотрите также архив погоды в соседних городах и на ближайших метеорологических станциях:

Погода в Sharjah (ОАЭ) (21 км)
Погода в Dubai Al Maktoum Int Airport (ОАЭ) (43 км)
Погода в Ras Al Khaimah Int Airport (ОАЭ) (73 км)
Погода в Abu Musa Island (Иран) (82 км)
Погода в Diba (Оман) (101 км)
Погода в Fujairah (ОАЭ) (102 км)
Погода в Sirri Island (Иран) (107 км)
Погода в Al Ain Int Airport (ОАЭ) (112 км)
Погода в Abu Dhabi (ОАЭ) (114 км)
Погода в Buraimi (Оман) (122 км)

Пояснения к столбцам:

Ветер - указаны скорость ветра в м/с - средняя за 10 мин, порывы в срок и между сроками (в фигурных скобках) и направление, откуда дует ветер: С - северный, СВ - северо-восточный, В - восточный, ЮВ - юго-восточный, Ю - южный, ЮЗ - юго-западный, З - западный, СЗ - северо-западный.
Видимость - горизонтальная дальность видимости в метрах или километрах. При видимости от 1 до 10 км при отсутствии осадков обычно наблюдается дымка, при ухудшении видимости до 1 км и менее - туман. В сухую погоду видимость может ухудшаться дымом, пылью или мглою.
Явления - указаны атмосферные явления, наблюдавшиеся в срок или в последний час перед сроком; фигурными скобками обозначены явления, наблюдавшиеся между сроками (за 1-3 часа до срока); квадратными скобками обозначены град или гололедные отложения с указанием их диаметра в мм.
Облачность - указаны через наклонную черту общая и нижняя облачность в баллах и высота нижней границы облаков в метрах; квадратными скобками обозначены формы облаков: Ci - перистые, Cs - перисто-слоистые, Cc - перисто-кучевые, Ac - высококучевые, As - высокослоистые, Sc - слоисто-кучевые, Ns - слоисто-дождевые, Cu - кучевые, Cb - кучево-дождевые. Подробнее классификацию облаков см. в Атласе облаков (PDF).
T - Температура воздуха - температура, измеренная на высоте 2 м над землей.
Td - Температура точки росы - температура, при понижении до которой содержащийся в воздухе водяной пар достигнет насыщения.
f - Относительная влажность воздуха - влажноcть воздуха, измеренная на высоте 2 м над землей.
Te - Эффективная температура - температура, которую ощущает одетый по сезону человек в тени. Характеристика душности погоды. При расчете учитывается влияние влажности воздуха и скорости ветра на теплоощущения человека.
Tes - Эффективная температура на солнце - температура, которую ощущает человек, с поправкой на солнечный нагрев. Характеристика знойности погоды. Зависит от высоты солнца над горизонтом, облачности и скорости ветра. Ночью, в пасмурную погоду, а также при ветре 12 м/с и более поправка равна нулю.
P - Атмосферное давление - приведенное к уровню моря атмосферное давление.
Po - Атмосферное давление - измеренное на уровне метеостанции атмосферное давление.
Tmin - Минимальная температура - минимум температуры воздуха на высоте 2 м над землей.
Tmax - Максимальная температура - максимум температуры воздуха на высоте 2 м над землей.
R - Количество осадков - Количество выпавших осадков за период времени, мм. При наведении курсора мыши на число - период времени, за который выпало указанное количество осадков.
R24 - Количество осадков - Количество выпавших осадков за 24 часа, мм.
S - Снежный покров - Высота снежного покрова, см. При наведении курсора мыши на число - состояние снежного покрова и степень покрытия местности в баллах.